Stations météo

réclame
Mon MeteoGroup
Voorschoten AWS, Pays-Bas (6215): Température de l'air & dewpoint: 05.12.2017 05:00:00 - 11.12.2017 05:00:00 (CET)Voorschoten AWS, Pays-Bas (6215): Température de l'air 5cm: 05.12.2017 05:00:00 - 11.12.2017 05:00:00 (CET)Voorschoten AWS, Pays-Bas (6215): Vitesse du vent & gusts: 05.12.2017 05:00:00 - 11.12.2017 05:00:00 (CET)Voorschoten AWS, Pays-Bas (6215): Direction du vent: 05.12.2017 05:00:00 - 11.12.2017 05:00:00 (CET)Voorschoten AWS, Pays-Bas (6215): reduced air pressure: 05.12.2017 05:00:00 - 11.12.2017 05:00:00 (CET)Voorschoten AWS, Pays-Bas (6215): visibility: 05.12.2017 05:00:00 - 11.12.2017 05:00:00 (CET)Voorschoten AWS, Pays-Bas (6215): Quantités de précipitations: 05.12.2017 05:00:00 - 11.12.2017 05:00:00 (CET)
Date & Time tt [°C] td [°C] tt 5cm [°C] ff [km/h] ff [knt] fx [km/h] fx [knt] dd ppp [hPa] vv [km] rr [mm]
11.12.2017 05:00:00 - - - - - - - - - - -
11.12.2017 04:00:00 -0,3 -1,9 -1,2 4 2 11 6 ESE 984,7 32 0,0
11.12.2017 03:00:00 0,6 -1,2 -0,6 11 6 14 8 ESE 983,6 39 0,0
11.12.2017 02:00:00 -0,7 -1,3 -0,7 7 4 7 4 SE 983,3 16 0,0
11.12.2017 01:00:00 0,4 -0,4 0,5 4 2 4 2 SE 982,6 21 0,0
11.12.2017 00:00:00 1,5 -0,6 1,0 0 0 14 8 N 982,0 41 0,0
10.12.2017 23:00:00 2,1 -1,0 1,3 11 6 32 18 NW 980,0 46 0,0
10.12.2017 22:00:00 2,2 -0,9 1,3 22 12 40 21 NNW 978,4 50 0,0
10.12.2017 21:00:00 1,8 -0,7 0,8 25 14 43 23 NNW 976,2 44 0,0
10.12.2017 20:00:00 0,8 -0,2 0,3 29 16 40 21 NNW 972,1 13 0,0
10.12.2017 19:00:00 1,0 0,2 0,6 22 12 32 18 NNE 968,7 5 0,0
10.12.2017 18:00:00 1,7 1,4 0,6 7 4 25 14 SE 968,1 7 0,1
10.12.2017 17:00:00 0,9 0,5 - 18 10 36 19 E 968,5 6 0,8
10.12.2017 16:00:00 0,3 -0,2 0,3 25 14 40 21 E 969,9 3,8 3,0
10.12.2017 15:00:00 0,1 -0,2 0,3 29 16 47 25 E 971,9 2,1 2,8
10.12.2017 14:00:00 0,1 0,0 0,2 29 16 43 23 E 974,0 0,1 3,6
10.12.2017 13:00:00 0,2 0,1 0,2 29 16 36 19 E 976,1 0,2 1,3
10.12.2017 12:00:00 0,0 -0,5 0,2 25 14 40 21 E 979,1 0,5 0,5
10.12.2017 11:00:00 0,7 -0,3 0,6 22 12 32 18 ESE 982,4 0,9 0,6
10.12.2017 10:00:00 2,0 0,6 1,9 22 12 29 16 SE 985,9 12 0,0
10.12.2017 09:00:00 1,6 0,7 1,4 18 10 32 18 SE 988,7 5 0,2
10.12.2017 08:00:00 1,8 0,7 1,5 14 8 29 16 SSE 991,3 7 0,0
10.12.2017 07:00:00 1,6 0,5 1,2 22 12 29 16 S 993,9 7 0,0
10.12.2017 06:00:00 1,0 -0,2 0,6 14 8 22 12 S 995,8 9 0,0
10.12.2017 05:00:00 1,1 -0,4 0,7 14 8 25 14 S 998,1 12 0,0
10.12.2017 04:00:00 1,2 -0,4 0,6 11 6 22 12 S 999,7 19 0,5
10.12.2017 03:00:00 0,4 0,0 0,4 7 4 36 19 SSW 1001,5 3,9 1,1
10.12.2017 02:00:00 1,7 -0,4 1,4 25 14 40 21 SSW 1002,7 20 0,5
10.12.2017 01:00:00 2,3 0,1 2,1 14 8 36 19 SW 1003,9 22 0,1
10.12.2017 00:00:00 4,1 -0,4 3,0 22 12 36 19 WSW 1004,8 40 0,5
09.12.2017 23:00:00 2,6 -0,1 1,4 14 8 29 16 WSW 1005,6 35 0,7
09.12.2017 22:00:00 2,7 -0,1 2,3 18 10 40 21 W 1006,6 15 0,1
09.12.2017 21:00:00 4,1 -1,7 2,7 22 12 36 19 W 1007,4 47 0,0
09.12.2017 20:00:00 4,0 -2,8 2,8 22 12 43 23 W 1008,4 48 0,0
09.12.2017 19:00:00 4,3 -2,4 3,3 25 14 36 19 W 1008,9 42 0,0
09.12.2017 18:00:00 4,0 -1,9 3,1 25 14 36 19 WSW 1009,4 48 0,0
09.12.2017 17:00:00 3,8 -1,1 3,1 22 12 36 19 WSW 1010,1 44 0,0
09.12.2017 16:00:00 4,1 -0,3 3,5 25 14 47 25 W 1010,6 34 0,0
09.12.2017 15:00:00 4,6 -0,1 3,9 25 14 43 23 W 1010,8 27 0,0
09.12.2017 14:00:00 4,6 1,6 4,3 22 12 43 23 WNW 1011,4 24 0,0
09.12.2017 13:00:00 4,6 2,0 4,4 18 10 47 25 WNW 1011,6 21 1,1
09.12.2017 12:00:00 4,3 2,2 4,2 14 8 50 27 NW 1012,0 35 0,4
09.12.2017 11:00:00 4,9 2,0 4,4 22 12 40 21 W 1012,1 29 0,0
09.12.2017 10:00:00 4,7 1,7 4,0 22 12 32 18 WNW 1011,8 35 0,0
09.12.2017 09:00:00 5,0 1,7 4,4 29 16 47 25 WNW 1011,5 33 0,0
09.12.2017 08:00:00 4,8 1,6 4,2 25 14 47 25 WNW 1011,2 23 0,0
09.12.2017 07:00:00 4,6 2,2 4,0 32 18 58 31 W 1010,8 18 0,6
09.12.2017 06:00:00 3,2 1,3 2,7 36 19 58 31 W 1010,8 3,9 0,7
09.12.2017 05:00:00 3,9 -0,8 3,3 32 18 54 29 W 1011,0 22 0,0
09.12.2017 04:00:00 4,0 -0,9 3,5 36 19 54 29 W 1011,0 24 0,0
09.12.2017 03:00:00 3,9 -0,3 3,1 36 19 54 29 W 1011,2 20 0,2
09.12.2017 02:00:00 2,6 0,2 1,2 22 12 54 29 W 1011,0 11 1,3
09.12.2017 01:00:00 2,4 0,5 1,8 25 14 50 27 W 1011,5 13 0,3
09.12.2017 00:00:00 1,8 0,4 1,4 32 18 61 33 NNW 1011,5 10 0,7
08.12.2017 23:00:00 0,9 -0,1 0,9 40 21 58 31 WNW 1011,9 4,3 1,3
08.12.2017 22:00:00 2,6 0,2 2,0 36 19 58 31 NW 1011,2 9 0,4
08.12.2017 21:00:00 3,8 0,1 2,8 29 16 54 29 WNW 1010,8 19 1,4
08.12.2017 20:00:00 2,4 1,2 1,3 22 12 61 33 WNW 1010,5 13 2,8
08.12.2017 19:00:00 1,0 0,2 0,8 40 21 58 31 NW 1010,5 0,8 3,3
08.12.2017 18:00:00 1,8 0,2 1,9 36 19 68 37 WNW 1010,0 1,6 0,3
08.12.2017 17:00:00 4,4 -3,2 3,9 40 21 61 33 W 1009,5 27 0,0
08.12.2017 16:00:00 4,3 -2,8 3,6 40 21 58 31 W 1009,3 29 0,0
08.12.2017 15:00:00 4,9 -1,9 4,2 36 19 58 31 WNW 1008,8 27 0,0
08.12.2017 14:00:00 5,0 -2,6 4,2 32 18 58 31 WNW 1008,5 27 0,0
08.12.2017 13:00:00 5,5 -0,9 4,8 32 18 50 27 WNW 1008,2 24 0,0
08.12.2017 12:00:00 5,6 -0,4 4,9 36 19 50 27 WNW 1008,0 25 0,1
08.12.2017 11:00:00 3,1 1,1 2,7 7 4 29 16 SW 1007,8 30 0,1
08.12.2017 10:00:00 1,8 0,8 1,1 22 12 43 23 NW 1007,8 5 2,9
08.12.2017 09:00:00 1,8 0,2 1,8 36 19 54 29 WNW 1006,9 5 0,5
08.12.2017 08:00:00 4,6 0,2 3,3 36 19 50 27 W 1005,9 28 0,3
08.12.2017 07:00:00 3,2 0,4 2,1 29 16 58 31 W 1006,0 10 0,9
08.12.2017 06:00:00 5,0 -0,9 4,3 29 16 50 27 W 1006,4 20 0,0
08.12.2017 05:00:00 5,4 -1,3 4,7 32 18 54 29 W 1007,0 24 0,0
08.12.2017 04:00:00 5,6 -1,6 4,7 32 18 54 29 W 1007,3 24 0,0
08.12.2017 03:00:00 5,6 0,2 4,7 32 18 50 27 W 1007,4 24 0,1
08.12.2017 02:00:00 6,3 1,4 5,5 32 18 50 27 W 1006,8 29 0,0
08.12.2017 01:00:00 6,8 1,8 6,0 29 16 47 25 W 1006,7 27 0,0
08.12.2017 00:00:00 7,1 1,6 6,0 32 18 61 33 W 1006,8 24 0,0
07.12.2017 23:00:00 7,6 1,9 6,6 40 21 61 33 W 1006,7 23 0,0
07.12.2017 22:00:00 7,9 2,6 7,1 32 18 47 25 WNW 1006,3 21 0,0
07.12.2017 21:00:00 7,9 3,2 7,1 29 16 47 25 W 1005,8 17 0,0
07.12.2017 20:00:00 7,8 3,8 6,9 25 14 43 23 W 1005,9 17 0,0
07.12.2017 19:00:00 7,8 4,0 6,8 22 12 32 18 WNW 1005,7 15 0,1
07.12.2017 18:00:00 7,3 6,0 7,0 22 12 47 25 WNW 1005,3 4,5 1,5
07.12.2017 17:00:00 7,0 5,8 6,7 36 19 50 27 SSW 1004,8 7 3,4
07.12.2017 16:00:00 6,6 5,5 6,4 36 19 58 31 SSW 1004,8 8 3,2
07.12.2017 15:00:00 6,5 5,1 6,4 43 23 72 39 SSW 1005,4 6 0,5
07.12.2017 14:00:00 6,4 4,4 6,2 43 23 65 35 SSW 1006,7 13 0,0
07.12.2017 13:00:00 5,8 4,2 5,6 40 21 65 35 SSW 1008,2 9 0,2
07.12.2017 12:00:00 5,5 3,4 5,4 43 23 65 35 SSW 1009,7 8 0,0
07.12.2017 11:00:00 5,2 2,8 5,2 36 19 54 29 S 1011,0 10 0,0
07.12.2017 10:00:00 4,9 2,2 4,8 40 21 58 31 SSW 1012,4 15 0,0
07.12.2017 09:00:00 4,5 2,0 4,2 32 18 58 31 S 1013,2 15 0,0
07.12.2017 08:00:00 4,2 1,8 4,1 36 19 58 31 S 1013,3 14 0,0
07.12.2017 07:00:00 4,3 1,9 4,1 36 19 50 27 S 1014,8 14 0,0
07.12.2017 06:00:00 5,2 1,9 5,0 32 18 47 25 S 1016,0 19 0,0
07.12.2017 05:00:00 4,9 1,8 4,4 29 16 50 27 S 1017,0 22 0,0
07.12.2017 04:00:00 5,9 1,8 5,6 32 18 47 25 SSW 1018,4 31 0,0
07.12.2017 03:00:00 6,2 1,9 5,8 32 18 54 29 SSW 1019,0 30 0,0
07.12.2017 02:00:00 6,6 1,6 6,2 32 18 54 29 SSW 1020,0 39 0,0
07.12.2017 01:00:00 7,2 2,0 6,8 32 18 47 25 SSW 1021,2 50 0,0
07.12.2017 00:00:00 7,3 2,7 7,0 29 16 40 21 SSW 1022,0 47 0,0
06.12.2017 23:00:00 7,5 3,1 7,2 25 14 40 21 SSW 1022,6 50 0,0
06.12.2017 22:00:00 7,7 3,5 7,4 25 14 40 21 SSW 1023,5 39 0,0
06.12.2017 21:00:00 8,1 3,6 7,7 22 12 40 21 SSW 1024,1 46 0,0
06.12.2017 20:00:00 8,2 3,9 7,8 22 12 40 21 SSW 1024,8 45 0,0
06.12.2017 19:00:00 8,3 4,8 8,0 18 10 32 18 SSW 1025,5 39 0,0
06.12.2017 18:00:00 8,4 5,5 8,1 18 10 36 19 SSW 1026,0 20 0,0
06.12.2017 17:00:00 8,6 5,4 8,3 25 14 40 21 SSW 1026,6 20 0,0
06.12.2017 16:00:00 9,1 4,6 8,8 22 12 43 23 SW 1026,9 44 0,0
06.12.2017 15:00:00 9,6 5,1 9,0 18 10 29 16 SW 1027,3 37 0,0
06.12.2017 14:00:00 9,4 5,5 9,1 18 10 32 18 SW 1028,0 33 0,0
06.12.2017 13:00:00 9,2 5,1 9,0 22 12 32 18 SW 1028,5 36 0,0
06.12.2017 12:00:00 9,7 4,4 9,4 22 12 36 19 WSW 1029,0 47 0,0
06.12.2017 11:00:00 9,6 4,5 9,0 22 12 40 21 WSW 1029,3 48 0,0
06.12.2017 10:00:00 9,3 3,6 8,7 18 10 36 19 WSW 1029,5 50 0,0
06.12.2017 09:00:00 8,9 3,5 8,3 22 12 40 21 WSW 1029,8 50 0,0
06.12.2017 08:00:00 8,6 3,5 8,0 25 14 40 21 W 1029,8 48 0,0
06.12.2017 07:00:00 8,6 3,8 8,1 25 14 43 23 W 1029,9 47 0,0
06.12.2017 06:00:00 8,7 4,2 8,1 25 14 40 21 W 1029,9 46 0,0
06.12.2017 05:00:00 8,8 3,9 8,3 25 14 43 23 W 1030,1 49 0,0
06.12.2017 04:00:00 8,8 3,7 8,3 25 14 36 19 WSW 1030,5 50 0,0
06.12.2017 03:00:00 8,7 3,8 8,3 25 14 40 21 W 1031,1 38 0,0
06.12.2017 02:00:00 8,7 3,7 8,1 22 12 43 23 WSW 1031,2 44 0,0
06.12.2017 01:00:00 8,4 3,5 7,9 22 12 40 21 W 1031,6 50 0,0
06.12.2017 00:00:00 8,3 3,7 7,7 25 14 50 27 W 1031,8 44 0,0
05.12.2017 23:00:00 8,2 3,7 7,7 22 12 36 19 WSW 1031,8 46 0,0
05.12.2017 22:00:00 8,0 3,5 7,6 25 14 40 21 W 1032,1 45 0,0
05.12.2017 21:00:00 8,4 3,6 7,9 25 14 36 19 WSW 1032,5 48 0,0
05.12.2017 20:00:00 8,5 3,8 8,0 25 14 36 19 WSW 1032,4 49 0,0
05.12.2017 19:00:00 8,6 4,1 7,9 22 12 32 18 W 1032,8 50 0,0
05.12.2017 18:00:00 8,4 3,4 7,9 22 12 36 19 W 1032,9 50 0,0
05.12.2017 17:00:00 8,4 3,8 7,9 22 12 40 21 W 1033,0 42 0,0
05.12.2017 16:00:00 8,6 4,2 8,2 25 14 32 18 W 1032,8 45 0,0
05.12.2017 15:00:00 8,9 4,7 8,5 22 12 32 18 W 1032,7 44 0,0
05.12.2017 14:00:00 9,3 4,3 8,8 22 12 32 18 W 1032,9 43 0,0
05.12.2017 13:00:00 9,3 6,2 9,1 22 12 32 18 W 1033,3 21 0,0
05.12.2017 12:00:00 9,2 5,2 8,8 22 12 32 18 W 1033,3 39 0,0
05.12.2017 11:00:00 9,0 4,4 8,3 18 10 29 16 W 1033,5 44 0,0
05.12.2017 10:00:00 8,7 4,0 8,0 18 10 32 18 W 1033,5 47 0,0
05.12.2017 09:00:00 8,7 3,6 8,0 18 10 29 16 W 1033,4 47 0,0
05.12.2017 08:00:00 8,8 3,6 8,0 18 10 32 18 W 1033,0 50 0,0
05.12.2017 07:00:00 8,9 3,0 8,2 22 12 32 18 W 1032,8 50 0,0
05.12.2017 06:00:00 8,7 4,0 8,1 18 10 29 16 W 1032,5 47 0,0
05.12.2017 05:00:00 8,8 5,1 8,0 14 8 25 14 W 1032,5 48 0,0

tt = Température de l'air
td = dewpoint
tt 5cm = Température de l'air 5cm
ff = Vitesse du vent
fx = gusts
dd = Direction du vent
ppp = reduced air pressure
vv = visibility
rr = Quantités de précipitations

stations d'obs. à proximité